This is the latest recevied weather packets stored in our database for station/object K5GTX. If no packets are shown the sender has not sent any weather packets the latest 10 day(s).
| Time | Temp. | Humidity | Pressure | Rain* | Wind** | Luminosity | Snow |
|---|---|---|---|---|---|---|---|
| 1777750172 | 23.89° C | 99% | 1027.2 hPa | 0 mm | - | 666 W/m² | - |
| 1777749869 | 22.78° C | 99% | 1027.4 hPa | 0 mm | - | 460 W/m² | - |
| 1777749566 | 23.33° C | 99% | 1027.4 hPa | 0 mm | - | 388 W/m² | - |
| 1777749264 | 23.33° C | 99% | 1027.5 hPa | 0 mm | - | 691 W/m² | - |
| 1777748961 | 23.33° C | 99% | 1027.5 hPa | 0 mm | - | 489 W/m² | - |
| 1777748658 | 23.33° C | 99% | 1027.7 hPa | 0 mm | - | 701 W/m² | - |
| 1777748354 | 22.78° C | 99% | 1027.5 hPa | 0 mm | - | 451 W/m² | - |
| 1777748049 | 22.78° C | 99% | 1027.7 hPa | 0 mm | - | 436 W/m² | - |
| 1777747747 | 22.78° C | 99% | 1027.8 hPa | 0 mm | - | 621 W/m² | - |
| 1777747442 | 22.78° C | 99% | 1028 hPa | 0 mm | - | 581 W/m² | - |
| 1777747139 | 22.78° C | 99% | 1027.7 hPa | 0 mm | - | 360 W/m² | - |
| 1777746835 | 22.78° C | 99% | 1027.9 hPa | 0 mm | - | 432 W/m² | - |
| 1777746531 | 22.22° C | 99% | 1027.8 hPa | 0 mm | - | 659 W/m² | - |
| 1777746227 | 23.33° C | 99% | 1028.2 hPa | 0 mm | - | 497 W/m² | - |
| 1777745923 | 22.22° C | 99% | 1028.2 hPa | 0 mm | - | 53 W/m² | - |
| 1777745622 | 22.22° C | 99% | 1028.1 hPa | 0 mm | - | 710 W/m² | - |
| 1777745319 | 22.22° C | 99% | 1028.2 hPa | 0 mm | - | 645 W/m² | - |
| 1777745016 | 21.67° C | 99% | 1028.2 hPa | 0 mm | - | 590 W/m² | - |
| 1777744712 | 22.22° C | 99% | 1028.3 hPa | 0 mm | - | 757 W/m² | - |
| 1777744406 | 22.22° C | 99% | 1028.5 hPa | 0 mm | - | 634 W/m² | - |
| 1777744104 | 22.22° C | 99% | 1028.7 hPa | 0 mm | - | 651 W/m² | - |
| 1777743801 | 22.22° C | 99% | 1028.5 hPa | 0 mm | - | 635 W/m² | - |
| 1777743497 | 21.67° C | 99% | 1028.4 hPa | 0 mm | - | 723 W/m² | - |
| 1777743194 | 21.67° C | 99% | 1028.8 hPa | 0 mm | - | 643 W/m² | - |
| 1777742892 | 21.67° C | 99% | 1028.6 hPa | 0 mm | - | 700 W/m² | - |
* Rain latest hour (hover to see other rain measurements)
** Current wind speed in m/s (hover to see current wind gust speed)